• In Romania
  • List of Countries
  • For 7 days
  • Water Temperature
  • Satellite Maps
  • Weather Map
  • Weather Widgets
  • user-avatar
    Login

    Hourly Weather Orehovatka

    Today, 23 September, Sunday

    Time Temperature Precipitation Wind Pressure Humidity
    00:00 +9°C° 0.6 mm 3 mps 738 mmHg 94%
    01:00 +9°C° 0.6 mm 3 mps 738 mmHg 94%
    02:00 +9°C° 0 mm 3 mps 738 mmHg 94%
    03:00 +9°C° 0.2 mm 3 mps 738 mmHg 94%
    04:00 +9°C° 0.2 mm 3 mps 738 mmHg 95%
    05:00 +8°C° 0.2 mm 3 mps 738 mmHg 95%
    06:00 +8°C° 0 mm 3 mps 738 mmHg 93%
    07:00 +9°C° 0 mm 3 mps 738 mmHg 92%
    08:00 +8°C° 0 mm 4 mps 737 mmHg 90%
    09:00 +10°C° 0 mm 4 mps 737 mmHg 83%
    10:00 +11°C° 0 mm 4 mps 737 mmHg 76%
    11:00 +12°C° 0 mm 5 mps 737 mmHg 68%
    12:00 +13°C° 0.2 mm 5 mps 737 mmHg 67%
    13:00 +13°C° 0.2 mm 5 mps 737 mmHg 66%
    14:00 +13°C° 0.2 mm 5 mps 737 mmHg 65%
    15:00 +12°C° 0.3 mm 4 mps 737 mmHg 70%
    16:00 +11°C° 0.3 mm 3 mps 737 mmHg 76%
    17:00 +11°C° 0.3 mm 3 mps 737 mmHg 81%
    18:00 +10°C° 0.1 mm 3 mps 737 mmHg 84%
    19:00 +9°C° 0.1 mm 2 mps 737 mmHg 88%
    20:00 +8°C° 0.1 mm 2 mps 737 mmHg 92%
    21:00 +8°C° 0 mm 2 mps 737 mmHg 92%
    22:00 +7°C° 0 mm 3 mps 737 mmHg 93%
    23:00 +7°C° 0 mm 3 mps 737 mmHg 93%

    Tomorrow, 24 September, Monday

    Time Temperature Precipitation Wind Pressure Humidity
    00:00 +7°C° 0 mm 3 mps 737 mmHg 94%
    01:00 +6°C° 0 mm 2 mps 736 mmHg 95%
    02:00 +6°C° 0 mm 2 mps 736 mmHg 96%
    03:00 +6°C° 0 mm 2 mps 736 mmHg 96%
    04:00 +6°C° 0 mm 2 mps 736 mmHg 97%
    05:00 +6°C° 0 mm 2 mps 736 mmHg 97%
    06:00 +6°C° 0 mm 2 mps 735 mmHg 96%
    07:00 +7°C° 0 mm 2 mps 735 mmHg 95%
    08:00 +8°C° 0 mm 2 mps 735 mmHg 93%
    09:00 +8°C° 0.4 mm 2 mps 735 mmHg 92%
    10:00 +9°C° 0.4 mm 2 mps 734 mmHg 91%
    11:00 +9°C° 0.4 mm 2 mps 734 mmHg 91%
    12:00 +9°C° 1.8 mm 2 mps 733 mmHg 92%
    13:00 +8°C° 1.8 mm 3 mps 732 mmHg 93%
    14:00 +8°C° 1.8 mm 3 mps 732 mmHg 95%
    15:00 +8°C° 2.1 mm 3 mps 731 mmHg 95%
    16:00 +7°C° 2.1 mm 4 mps 730 mmHg 95%
    17:00 +6°C° 2.1 mm 4 mps 729 mmHg 95%
    18:00 +6°C° 1.9 mm 4 mps 729 mmHg 95%
    19:00 +6°C° 1.9 mm 5 mps 728 mmHg 94%
    20:00 +6°C° 1.9 mm 5 mps 728 mmHg 94%
    21:00 +5°C° 1.3 mm 6 mps 728 mmHg 93%
    22:00 +5°C° 1.3 mm 6 mps 728 mmHg 92%
    23:00 +5°C° 1.3 mm 7 mps 728 mmHg 91%

    Day after tomorrow, 25 September, Tuesday

    Time Temperature Precipitation Wind Pressure Humidity
    00:00 +5°C° 0.8 mm 7 mps 728 mmHg 90%
    01:00 +5°C° 0.8 mm 7 mps 729 mmHg 90%
    02:00 +5°C° 0.8 mm 7 mps 729 mmHg 89%
    03:00 +4°C° 0.2 mm 7 mps 730 mmHg 89%
    04:00 +4°C° 0.2 mm 7 mps 731 mmHg 89%
    05:00 +4°C° 0.2 mm 7 mps 732 mmHg 88%
    06:00 +4°C° 0.1 mm 7 mps 732 mmHg 87%
    07:00 +3°C° 0.1 mm 7 mps 733 mmHg 86%
    08:00 +3°C° 0.1 mm 7 mps 734 mmHg 85%
    09:00 +4°C° 0.1 mm 6 mps 735 mmHg 83%
    10:00 +4°C° 0.1 mm 6 mps 736 mmHg 80%
    11:00 +4°C° 0.1 mm 6 mps 737 mmHg 78%
    12:00 +5°C° 0 mm 6 mps 737 mmHg 73%
    13:00 +5°C° 0 mm 6 mps 738 mmHg 68%
    14:00 +7°C° 0 mm 6 mps 739 mmHg 64%
    15:00 +6°C° 0.1 mm 5 mps 739 mmHg 65%
    16:00 +6°C° 0.1 mm 5 mps 740 mmHg 67%
    17:00 +5°C° 0.1 mm 5 mps 740 mmHg 69%
    18:00 +5°C° 0 mm 4 mps 741 mmHg 70%
    19:00 +4°C° 0 mm 4 mps 742 mmHg 71%
    20:00 +3°C° 0 mm 4 mps 743 mmHg 72%
    21:00 +3°C° 0 mm 4 mps 743 mmHg 72%
    22:00 +1°C° 0 mm 4 mps 744 mmHg 71%
    23:00 +1°C° 0 mm 4 mps 745 mmHg 70%

    26 September, Wednesday

    Time Temperature Precipitation Wind Pressure Humidity
    00:00 +1°C° 0 mm 4 mps 745 mmHg 73%
    01:00 +1°C° 0 mm 3 mps 746 mmHg 76%
    02:00 +1°C° 0 mm 3 mps 746 mmHg 78%
    03:00 +1°C° 0 mm 3 mps 746 mmHg 82%
    04:00 +1°C° 0 mm 3 mps 747 mmHg 87%
    05:00 +1°C° 0 mm 3 mps 747 mmHg 91%
    06:00 +2°C° 0 mm 3 mps 748 mmHg 86%
    07:00 +3°C° 0 mm 3 mps 748 mmHg 81%
    08:00 +4°C° 0 mm 3 mps 748 mmHg 76%
    09:00 +5°C° 0 mm 4 mps 748 mmHg 69%
    10:00 +7°C° 0 mm 4 mps 748 mmHg 62%
    11:00 +10°C° 0 mm 4 mps 748 mmHg 55%
    12:00 +9°C° 0 mm 5 mps 747 mmHg 54%
    13:00 +10°C° 0 mm 5 mps 747 mmHg 53%
    14:00 +10°C° 0 mm 5 mps 746 mmHg 52%
    15:00 +9°C° 0 mm 5 mps 745 mmHg 58%
    16:00 +9°C° 0 mm 5 mps 745 mmHg 64%
    17:00 +8°C° 0 mm 5 mps 744 mmHg 71%
    18:00 +7°C° 0.5 mm 6 mps 743 mmHg 76%
    19:00 +7°C° 0.5 mm 6 mps 742 mmHg 82%
    20:00 +5°C° 0.5 mm 7 mps 742 mmHg 87%
    21:00 +5°C° 1.6 mm 7 mps 740 mmHg 88%
    22:00 +5°C° 1.6 mm 7 mps 739 mmHg 89%
    23:00 +5°C° 1.6 mm 7 mps 738 mmHg 90%

    27 September, Thursday

    Time Temperature Precipitation Wind Pressure Humidity
    00:00 +5°C° 2.1 mm 7 mps 737 mmHg 91%
    01:00 +5°C° 2.1 mm 7 mps 736 mmHg 91%
    02:00 +5°C° 2.1 mm 7 mps 735 mmHg 92%
    03:00 +5°C° 1.7 mm 6 mps 735 mmHg 93%
    04:00 +7°C° 1.7 mm 5 mps 734 mmHg 94%
    05:00 +7°C° 1.7 mm 5 mps 734 mmHg 94%
    06:00 +8°C° 0.9 mm 4 mps 734 mmHg 94%
    07:00 +8°C° 0.9 mm 4 mps 734 mmHg 94%
    08:00 +8°C° 0.9 mm 4 mps 734 mmHg 94%
    09:00 +10°C° 0.1 mm 4 mps 735 mmHg 86%
    10:00 +10°C° 0.1 mm 5 mps 735 mmHg 78%
    11:00 +12°C° 0.1 mm 5 mps 735 mmHg 70%
    12:00 +12°C° 0 mm 5 mps 736 mmHg 64%
    13:00 +13°C° 0 mm 5 mps 736 mmHg 59%
    14:00 +13°C° 0 mm 5 mps 736 mmHg 53%
    15:00 +12°C° 0 mm 4 mps 736 mmHg 58%
    16:00 +11°C° 0 mm 3 mps 737 mmHg 63%
    17:00 +10°C° 0 mm 2 mps 737 mmHg 68%
    18:00 +10°C° 0.1 mm 2 mps 737 mmHg 73%
    19:00 +9°C° 0.1 mm 2 mps 737 mmHg 78%
    20:00 +8°C° 0.1 mm 2 mps 737 mmHg 83%
    21:00 +8°C° 0.3 mm 2 mps 737 mmHg 87%
    22:00 +8°C° 0.3 mm 2 mps 737 mmHg 90%
    23:00 +9°C° 0.3 mm 1 mps 737 mmHg 94%

    28 September, Friday

    Time Temperature Precipitation Wind Pressure Humidity
    00:00 +9°C° 0.2 mm 1 mps 737 mmHg 94%
    01:00 +9°C° 0.2 mm 1 mps 737 mmHg 95%
    02:00 +9°C° 0.2 mm 1 mps 737 mmHg 95%
    03:00 +8°C° 1.1 mm 2 mps 736 mmHg 95%
    04:00 +8°C° 1.1 mm 2 mps 735 mmHg 96%
    05:00 +8°C° 1.1 mm 3 mps 734 mmHg 96%
    06:00 +8°C° 2.9 mm 4 mps 733 mmHg 94%
    07:00 +9°C° 2.9 mm 5 mps 732 mmHg 93%
    08:00 +10°C° 2.9 mm 5 mps 731 mmHg 92%
    09:00 +10°C° 1.6 mm 5 mps 731 mmHg 91%
    10:00 +9°C° 1.6 mm 5 mps 732 mmHg 91%
    11:00 +9°C° 1.6 mm 5 mps 732 mmHg 91%
    12:00 +8°C° 0.1 mm 5 mps 733 mmHg 90%
    13:00 +7°C° 0.1 mm 5 mps 734 mmHg 88%
    14:00 +7°C° 0.1 mm 5 mps 735 mmHg 87%
    15:00 +6°C° 0 mm 4 mps 736 mmHg 87%
    16:00 +6°C° 0 mm 4 mps 737 mmHg 87%
    17:00 +7°C° 0 mm 3 mps 738 mmHg 87%
    18:00 +6°C° 0 mm 2 mps 739 mmHg 90%
    19:00 +5°C° 0 mm 2 mps 739 mmHg 93%
    20:00 +5°C° 0 mm 1 mps 740 mmHg 96%
    21:00 +4°C° 0 mm 2 mps 740 mmHg 96%
    22:00 +4°C° 0 mm 2 mps 740 mmHg 95%
    23:00 +3°C° 0 mm 3 mps 741 mmHg 95%
    Show more